Time,TemperatureF,DewpointF,PressureIn,WindDirection,WindDirectionDegrees,WindSpeedMPH,WindSpeedGustMPH,Humidity,HourlyPrecipIn,Conditions,Clouds,dailyrainin,SoftwareType,DateUTC
2013-03-06 00:12:00,18.0,15.1,30.28,North,-999,0.0,-999.0,88,-99.99,,,-99.99,Acu-Link.com,2013-03-06 06:12:00,
2013-03-06 00:27:00,18.2,15.5,30.28,North,-999,0.0,-999.0,89,-99.99,,,-99.99,Acu-Link.com,2013-03-06 06:27:00,
2013-03-06 00:42:00,17.5,15.1,30.29,North,-999,0.0,-999.0,90,-99.99,,,-99.99,Acu-Link.com,2013-03-06 06:42:00,
2013-03-06 00:57:00,17.0,14.8,30.29,North,-999,0.0,-999.0,91,-99.99,,,-99.99,Acu-Link.com,2013-03-06 06:57:00,
2013-03-06 01:13:00,16.5,14.3,30.29,North,-999,0.0,-999.0,91,-99.99,,,-99.99,Acu-Link.com,2013-03-06 07:13:00,
2013-03-06 01:28:00,16.3,14.1,30.29,North,-999,0.0,-999.0,91,-99.99,,,-99.99,Acu-Link.com,2013-03-06 07:28:00,
2013-03-06 01:44:00,16.0,13.8,30.29,North,-999,1.6,-999.0,91,-99.99,,,-99.99,Acu-Link.com,2013-03-06 07:44:00,
2013-03-06 01:59:00,16.3,14.1,30.30,North,-999,0.0,-999.0,91,-99.99,,,-99.99,Acu-Link.com,2013-03-06 07:59:00,
2013-03-06 02:14:00,17.5,15.6,30.30,North,-999,1.6,-999.0,92,-99.99,,,-99.99,Acu-Link.com,2013-03-06 08:14:00,
2013-03-06 02:30:00,18.9,16.5,30.30,North,-999,1.6,-999.0,90,-99.99,,,-99.99,Acu-Link.com,2013-03-06 08:30:00,
2013-03-06 02:45:00,19.9,16.9,30.30,North,-999,8.0,-999.0,88,-99.99,,,-99.99,Acu-Link.com,2013-03-06 08:45:00,
2013-03-06 03:00:00,20.4,16.9,30.30,North,-999,1.6,-999.0,86,-99.99,,,-99.99,Acu-Link.com,2013-03-06 09:00:00,
2013-03-06 03:23:00,20.2,16.7,30.30,North,-999,9.6,-999.0,86,-99.99,,,-99.99,Acu-Link.com,2013-03-06 09:23:00,
2013-03-06 03:38:00,19.6,16.4,30.29,North,-999,0.0,-999.0,87,-99.99,,,-99.99,Acu-Link.com,2013-03-06 09:38:00,
2013-03-06 03:53:00,19.9,16.4,30.29,North,-999,4.8,-999.0,86,-99.99,,,-99.99,Acu-Link.com,2013-03-06 09:53:00,
2013-03-06 04:09:00,19.9,16.7,30.30,North,-999,0.0,-999.0,87,-99.99,,,-99.99,Acu-Link.com,2013-03-06 10:09:00,
2013-03-06 04:24:00,20.2,17.0,30.30,North,-999,4.8,-999.0,87,-99.99,,,-99.99,Acu-Link.com,2013-03-06 10:24:00,
2013-03-06 04:39:00,20.0,16.8,30.30,North,-999,4.8,-999.0,87,-99.99,,,-99.99,Acu-Link.com,2013-03-06 10:39:00,
2013-03-06 04:54:00,19.6,16.1,30.30,North,-999,8.0,-999.0,86,-99.99,,,-99.99,Acu-Link.com,2013-03-06 10:54:00,
2013-03-06 05:09:00,19.5,16.5,30.30,North,-999,1.6,-999.0,88,-99.99,,,-99.99,Acu-Link.com,2013-03-06 11:09:00,
2013-03-06 05:24:00,19.7,16.7,30.31,North,-999,8.0,-999.0,88,-99.99,,,-99.99,Acu-Link.com,2013-03-06 11:24:00,
2013-03-06 05:40:00,19.7,16.7,30.31,North,-999,3.2,-999.0,88,-99.99,,,-99.99,Acu-Link.com,2013-03-06 11:40:00,
2013-03-06 05:55:00,19.6,16.6,30.31,North,-999,4.8,-999.0,88,-99.99,,,-99.99,Acu-Link.com,2013-03-06 11:55:00,
2013-03-06 06:10:00,19.7,16.7,30.31,North,-999,8.0,-999.0,88,-99.99,,,-99.99,Acu-Link.com,2013-03-06 12:10:00,
2013-03-06 06:26:00,19.2,16.5,30.30,North,-999,11.2,-999.0,89,-99.99,,,-99.99,Acu-Link.com,2013-03-06 12:26:00,
2013-03-06 06:41:00,18.7,16.0,30.30,North,-999,8.0,-999.0,89,-99.99,,,-99.99,Acu-Link.com,2013-03-06 12:41:00,
2013-03-06 06:56:00,18.7,16.0,30.30,North,-999,8.0,-999.0,89,-99.99,,,-99.99,Acu-Link.com,2013-03-06 12:56:00,
2013-03-06 07:11:00,18.3,16.1,30.31,North,-999,6.4,-999.0,91,-99.99,,,-99.99,Acu-Link.com,2013-03-06 13:11:00,
2013-03-06 07:27:00,18.5,16.1,30.30,North,-999,6.4,-999.0,90,-99.99,,,-99.99,Acu-Link.com,2013-03-06 13:27:00,
2013-03-06 07:42:00,18.8,16.4,30.30,North,-999,11.2,-999.0,90,-99.99,,,-99.99,Acu-Link.com,2013-03-06 13:42:00,
2013-03-06 07:57:00,18.9,16.5,30.30,North,-999,9.6,-999.0,90,-99.99,,,-99.99,Acu-Link.com,2013-03-06 13:57:00,
2013-03-06 08:13:00,19.4,16.7,30.30,North,-999,8.0,-999.0,89,-99.99,,,-99.99,Acu-Link.com,2013-03-06 14:13:00,
2013-03-06 08:28:00,19.8,17.1,30.30,North,-999,3.2,-999.0,89,-99.99,,,-99.99,Acu-Link.com,2013-03-06 14:28:00,
2013-03-06 08:43:00,20.4,17.7,30.31,North,-999,6.4,-999.0,89,-99.99,,,-99.99,Acu-Link.com,2013-03-06 14:43:00,
2013-03-06 08:58:00,19.8,17.1,30.30,North,-999,11.2,-999.0,89,-99.99,,,-99.99,Acu-Link.com,2013-03-06 14:58:00,
2013-03-06 09:14:00,20.3,17.1,30.30,North,-999,4.8,-999.0,87,-99.99,,,-99.99,Acu-Link.com,2013-03-06 15:14:00,
2013-03-06 09:29:00,20.7,17.2,30.31,North,-999,3.2,-999.0,86,-99.99,,,-99.99,Acu-Link.com,2013-03-06 15:29:00,
2013-03-06 09:59:00,23.6,18.4,30.31,North,-999,3.2,-999.0,80,-99.99,,,-99.99,Acu-Link.com,2013-03-06 15:59:00,
2013-03-06 10:15:00,25.2,19.6,30.31,North,-999,0.0,-999.0,79,-99.99,,,-99.99,Acu-Link.com,2013-03-06 16:15:00,
2013-03-06 10:30:00,26.1,19.6,30.30,North,-999,4.8,-999.0,76,-99.99,,,-99.99,Acu-Link.com,2013-03-06 16:30:00,
2013-03-06 10:45:00,31.6,22.3,30.30,North,-999,1.6,-999.0,68,-99.99,,,-99.99,Acu-Link.com,2013-03-06 16:45:00,
2013-03-06 11:01:00,29.7,20.5,30.30,North,-999,1.6,-999.0,68,-99.99,,,-99.99,Acu-Link.com,2013-03-06 17:01:00,
2013-03-06 11:16:00,30.0,20.4,30.29,North,-999,1.6,-999.0,67,-99.99,,,-99.99,Acu-Link.com,2013-03-06 17:16:00,
2013-03-06 11:31:00,31.6,20.5,30.29,North,-999,6.4,-999.0,63,-99.99,,,-99.99,Acu-Link.com,2013-03-06 17:31:00,
2013-03-06 11:47:00,30.4,20.1,30.28,North,-999,3.2,-999.0,65,-99.99,,,-99.99,Acu-Link.com,2013-03-06 17:47:00,
2013-03-06 12:02:00,31.2,20.1,30.28,North,-999,3.2,-999.0,63,-99.99,,,-99.99,Acu-Link.com,2013-03-06 18:02:00,
2013-03-06 12:17:00,34.3,22.7,30.27,North,-999,4.8,-999.0,62,-99.99,,,-99.99,Acu-Link.com,2013-03-06 18:17:00,
2013-03-06 12:32:00,34.1,21.3,30.26,North,-999,3.2,-999.0,59,-99.99,,,-99.99,Acu-Link.com,2013-03-06 18:32:00,
2013-03-06 12:48:00,34.8,21.1,30.26,North,-999,1.6,-999.0,57,-99.99,,,-99.99,Acu-Link.com,2013-03-06 18:48:00,
2013-03-06 13:03:00,35.2,21.5,30.24,North,-999,4.8,-999.0,57,-99.99,,,-99.99,Acu-Link.com,2013-03-06 19:03:00,
2013-03-06 13:18:00,36.1,22.8,30.23,North,-999,1.6,-999.0,58,-99.99,,,-99.99,Acu-Link.com,2013-03-06 19:18:00,
2013-03-06 13:34:00,35.3,20.3,30.21,North,-999,8.0,-999.0,54,-99.99,,,-99.99,Acu-Link.com,2013-03-06 19:34:00,
2013-03-06 13:49:00,36.9,20.5,30.20,North,-999,6.4,-999.0,51,-99.99,,,-99.99,Acu-Link.com,2013-03-06 19:49:00,
2013-03-06 14:04:00,38.6,21.1,30.19,North,-999,4.8,-999.0,49,-99.99,,,-99.99,Acu-Link.com,2013-03-06 20:04:00,
2013-03-06 14:20:00,37.8,19.9,30.19,North,-999,6.4,-999.0,48,-99.99,,,-99.99,Acu-Link.com,2013-03-06 20:20:00,
2013-03-06 14:35:00,38.4,20.9,30.18,North,-999,6.4,-999.0,49,-99.99,,,-99.99,Acu-Link.com,2013-03-06 20:35:00,
2013-03-06 14:50:00,38.1,20.2,30.16,North,-999,8.0,-999.0,48,-99.99,,,-99.99,Acu-Link.com,2013-03-06 20:50:00,
2013-03-06 15:05:00,39.7,21.6,30.16,North,-999,3.2,-999.0,48,-99.99,,,-99.99,Acu-Link.com,2013-03-06 21:05:00,
2013-03-06 15:21:00,39.2,21.7,30.16,North,-999,6.4,-999.0,49,-99.99,,,-99.99,Acu-Link.com,2013-03-06 21:21:00,
2013-03-06 15:36:00,39.0,21.0,30.16,North,-999,9.6,-999.0,48,-99.99,,,-99.99,Acu-Link.com,2013-03-06 21:36:00,
2013-03-06 15:51:00,40.6,22.0,30.15,North,-999,3.2,-999.0,47,-99.99,,,-99.99,Acu-Link.com,2013-03-06 21:51:00,
2013-03-06 16:06:00,40.1,21.0,30.13,North,-999,3.2,-999.0,46,-99.99,,,-99.99,Acu-Link.com,2013-03-06 22:06:00,
2013-03-06 16:22:00,40.0,21.4,30.14,North,-999,6.4,-999.0,47,-99.99,,,-99.99,Acu-Link.com,2013-03-06 22:22:00,
2013-03-06 16:37:00,39.7,21.1,30.13,North,-999,6.4,-999.0,47,-99.99,,,-99.99,Acu-Link.com,2013-03-06 22:37:00,
2013-03-06 16:52:00,38.8,21.3,30.12,North,-999,4.8,-999.0,49,-99.99,,,-99.99,Acu-Link.com,2013-03-06 22:52:00,
2013-03-06 17:07:00,38.7,22.1,30.12,North,-999,4.8,-999.0,51,-99.99,,,-99.99,Acu-Link.com,2013-03-06 23:07:00,
2013-03-06 17:22:00,37.9,21.4,30.12,North,-999,4.8,-999.0,51,-99.99,,,-99.99,Acu-Link.com,2013-03-06 23:22:00,
2013-03-06 17:38:00,37.1,21.6,30.12,North,-999,8.0,-999.0,53,-99.99,,,-99.99,Acu-Link.com,2013-03-06 23:38:00,
2013-03-06 17:53:00,36.5,22.3,30.11,North,-999,6.4,-999.0,56,-99.99,,,-99.99,Acu-Link.com,2013-03-06 23:53:00,
2013-03-06 18:08:00,35.4,22.5,30.12,North,-999,4.8,-999.0,59,-99.99,,,-99.99,Acu-Link.com,2013-03-07 00:08:00,
2013-03-06 18:23:00,34.3,22.7,30.11,North,-999,4.8,-999.0,62,-99.99,,,-99.99,Acu-Link.com,2013-03-07 00:23:00,
2013-03-06 18:39:00,33.3,22.5,30.11,North,-999,4.8,-999.0,64,-99.99,,,-99.99,Acu-Link.com,2013-03-07 00:39:00,
2013-03-06 18:54:00,32.6,22.5,30.11,North,-999,3.2,-999.0,66,-99.99,,,-99.99,Acu-Link.com,2013-03-07 00:54:00,
2013-03-06 19:10:00,32.1,22.4,30.11,North,-999,3.2,-999.0,67,-99.99,,,-99.99,Acu-Link.com,2013-03-07 01:10:00,
2013-03-06 19:25:00,30.8,21.9,30.11,North,-999,1.6,-999.0,69,-99.99,,,-99.99,Acu-Link.com,2013-03-07 01:25:00,
2013-03-06 19:40:00,30.6,22.3,30.11,North,-999,3.2,-999.0,71,-99.99,,,-99.99,Acu-Link.com,2013-03-07 01:40:00,
2013-03-06 19:55:00,30.1,22.2,30.10,North,-999,3.2,-999.0,72,-99.99,,,-99.99,Acu-Link.com,2013-03-07 01:55:00,
2013-03-06 20:11:00,29.8,22.5,30.10,North,-999,1.6,-999.0,74,-99.99,,,-99.99,Acu-Link.com,2013-03-07 02:11:00,
2013-03-06 20:26:00,29.7,22.1,30.10,North,-999,0.0,-999.0,73,-99.99,,,-99.99,Acu-Link.com,2013-03-07 02:26:00,
2013-03-06 20:41:00,29.7,22.1,30.09,North,-999,1.6,-999.0,73,-99.99,,,-99.99,Acu-Link.com,2013-03-07 02:41:00,
2013-03-06 20:56:00,29.1,21.9,30.09,North,-999,3.2,-999.0,74,-99.99,,,-99.99,Acu-Link.com,2013-03-07 02:56:00,
2013-03-06 21:12:00,28.7,21.8,30.10,North,-999,1.6,-999.0,75,-99.99,,,-99.99,Acu-Link.com,2013-03-07 03:12:00,
2013-03-06 21:27:00,28.4,21.8,30.09,North,-999,3.2,-999.0,76,-99.99,,,-99.99,Acu-Link.com,2013-03-07 03:27:00,
2013-03-06 21:43:00,28.1,21.8,30.10,North,-999,0.0,-999.0,77,-99.99,,,-99.99,Acu-Link.com,2013-03-07 03:43:00,
2013-03-06 21:58:00,27.9,21.9,30.10,North,-999,4.8,-999.0,78,-99.99,,,-99.99,Acu-Link.com,2013-03-07 03:58:00,
2013-03-06 22:13:00,27.6,22.0,30.10,North,-999,0.0,-999.0,79,-99.99,,,-99.99,Acu-Link.com,2013-03-07 04:13:00,
2013-03-06 22:28:00,27.5,22.2,30.10,North,-999,1.6,-999.0,80,-99.99,,,-99.99,Acu-Link.com,2013-03-07 04:28:00,
2013-03-06 22:44:00,27.1,22.1,30.10,North,-999,0.0,-999.0,81,-99.99,,,-99.99,Acu-Link.com,2013-03-07 04:44:00,
2013-03-06 22:59:00,27.0,22.5,30.10,North,-999,1.6,-999.0,83,-99.99,,,-99.99,Acu-Link.com,2013-03-07 04:59:00,
2013-03-06 23:14:00,26.8,22.3,30.10,North,-999,1.6,-999.0,83,-99.99,,,-99.99,Acu-Link.com,2013-03-07 05:14:00,
2013-03-06 23:29:00,26.5,22.6,30.10,North,-999,3.2,-999.0,85,-99.99,,,-99.99,Acu-Link.com,2013-03-07 05:29:00,
2013-03-06 23:45:00,26.4,22.8,30.10,North,-999,4.8,-999.0,86,-99.99,,,-99.99,Acu-Link.com,2013-03-07 05:45:00,